Retour au catalogue

STARLINK-37517

ActifCommunicationsVLEO
NORAD 69254·PAYLOAD·🇺🇸 United States

Lancé May 20, 2026 depuis Vandenberg Space Force Base

Loading…

Prochains Passages (prochaines 24 heures)

TLE

FraisSource: CelesTrak SupGP

Époque: Sep 15, 2026, 03:30 UTC

1 69254C 26117S   26258.14631944 -.00004730  00000+0 -13988-3 0  2583
2 69254  53.1579 178.4846 0001429  79.4261 110.6301 15.34364012    13

Suivez STARLINK-37517 en temps réel avec AllMySat

Download on the App Store